OPS 4682 DEB, 12102

Orbit data source: Space-Track

OPS 4682 DEB, 12102 is space debris in LEO originally from a launch on Sat, 03 Apr 1965 UTC launched from the Air Force Western Test Range (AFWTR). Debris objects in space refer to the collection of defunct objects orbiting the Earth. Examples of debris include non-operational satellites, rocket bodies, and fragments generated from explosions, collisions, or faulty payload assembly.

Loading next visibility...
Identifier
12102, 1965-027G
Orbit
LEO
Country
Flag of USUS
Related business
Manufacturer
Unknown
Mission
Spacecraft
Bus & Motor
Unknown
Mass
Unknown
Launch date (UTC)
1965-04-03 (61 years ago)
Launch vehicle
Unknown
Launch site
Air Force Western Test Range (AFWTR)
Object type
Payload
Rocket body
Debris
Shape & HBR
Unknown shape, 0.1 m
Radar Cross Section
Small (<0.1 m²)

Expand to show TLE details & history
Last TLE update: 1 week ago

TLE from 1 week ago
0 OPS 4682 DEB
1 12102U 65027G   26152.08519825  .00000513  00000-0  17095-2 0  9993
2 12102  90.2487  14.1891 0027035  27.4282 125.4691 12.98751304888646
Epoch: 2026-06-01T02:02Z
TLE epoch observation values (Epoch: 2026-06-01T02:02:41.128Z)
Latitude
26.88394°
Longitude
-85.9344°
Altitude
1,282.294 km
Speed
7.211 km/s
True Right ascension
12h 57m 15s
True Declination
26° 45' 18"
Sunlit
Object was in daylight at epoch
Visualization orbit readout
Latitude
Unknown
Longitude
Unknown
Altitude
Unknown
Speed
Unknown
Apparent Right ascension
Unknown
Apparent Declination
Unknown
Sunlit
N/A
Visualization observer readout
Local Sidereal Time
13:00:00
Azimuth
Unknown
Elevation
Unknown
Doppler factor
Unknown
Orbital elements
Apogee altitude
1,284.773 km
Perigee altitude
1,243.451 km
Semi-major axis
7,642.249 km
Eccentricity
0.0027
Inclination
90.2487°
RAAN
14.1891°
Arg. of periapsis
27.4282°
True anomaly
125.72091°
Mean anomaly
125.4691°
Eccentric anomaly
125.59506°
Mean motion
3.24871 °/min
Orbital period
110.81 mins
BSTAR
0.0017095
Loading maneuver chart data...
Computing Atmospheric mass density...
Loading historical data...
Loading historical data...
Loading historical data...
Loading historical data...
Loading historical data...
Loading historical data...
Loading historical data...

Documentation

Showing up to 5 results
|